Theta_e
283 284 283 283 283 283 284 285 287 287 287 286 286 285 285 284 283 283 282 281 280 280
283 282 283 282 282 283 283 284 285 286 286 285 285 284 283 283 282 281 281 281 280 279
283 283 282 282 282 282 283 284 284 285 285 284 283 283 282 282 281 280 280 280 278 278
282 282 282 283 282 282 282 283 284 284 284 283 282 282 281 280 280 280 279 278 278 278
282 282 282 283 283 282 282 282 283 283 283 282 281 281 280 280 279 279 278 278 278 277
282 282 282 282 282 282 281 281 282 282 282 281 281 280 280 280 279 279 278 278 278 277
282 282 283 282 282 281 281 280 281 281 281 280 280 280 280 280 279 278 278 279 278 278
281 282 282 281 281 281 280 280 280 279 278 279 279 280 279 279 278 278 278 278 279 278
280 281 280 280 280 280 280 280 280 279 278 278 280 284 283 280 278 279 278 277 277 277
280 280 280 280 280 279 279 279 278 278 278 277 278 285 284 282 279 277 276 275 275 274
279 279 279 279 279 278 278 278 277 276 276 277 280 285 284 280 274 272 271 271 270 270
278 277 277 277 276 276 276 275 275 275 276 279 282 284 282 276 272 269 268 268 269 269
276 277 274 274 275 274 275 275 277 277 279 281 281 282 279 273 270 268 267 266 267 275
274 274 274 273 274 275 276 278 277 276 278 279 278 278 278 276 269 267 267 267 266 272
Wind_Speed
8 7 6 8 7 7 8 8 8 7 7 7 8 7 7 5 5 5 5 6 4 3
8 8 9 9 6 6 5 6 7 9 8 7 7 8 8 6 6 5 5 5 5 3
9 8 7 7 8 9 7 8 9 9 9 7 6 7 7 5 5 6 3 4 6 4
8 8 8 9 8 9 8 9 10 10 10 9 8 6 6 5 6 6 6 5 6 5
7 7 9 9 9 9 9 8 9 8 9 9 8 8 7 7 7 8 7 6 6 6
8 9 10 9 9 9 8 8 9 10 10 8 8 8 8 8 7 6 7 6 7 6
9 10 9 8 8 9 9 9 9 9 8 8 8 8 7 8 9 7 6 6 6 6
6 6 6 7 8 8 8 8 8 9 8 8 9 7 7 8 8 9 9 8 8 7
7 6 6 7 8 9 8 8 9 9 10 9 6 16 17 13 9 10 10 10 9 8
6 7 7 7 8 9 9 9 9 9 9 8 6 19 19 19 9 10 10 10 9 8
6 6 6 7 7 7 7 9 9 8 8 9 6 19 21 21 11 10 9 8 8 9
6 7 7 6 7 6 8 7 6 8 10 11 10 21 21 18 12 12 10 8 7 6
5 6 7 7 9 4 8 9 8 9 8 13 14 20 20 17 11 12 8 5 5 11
6 8 8 7 8 9 11 12 12 12 11 14 14 15 21 21 10 10 8 6 4 5
Wind_Direction
167 176 176 173 170 180 188 184 164 173 168 166 166 167 167 167 165 169 181 181 174 177
166 167 179 171 160 169 158 154 160 164 172 164 164 165 163 170 169 163 165 171 166 135
181 174 157 154 164 167 162 159 161 169 163 160 160 160 158 153 144 147 146 138 142 119
174 169 162 170 166 170 156 163 170 171 166 162 161 157 150 142 142 145 141 131 134 127
164 161 170 174 172 161 168 163 163 160 163 158 155 150 153 151 151 150 149 143 132 129
173 173 182 177 167 165 156 157 155 155 159 162 156 151 147 143 144 140 135 137 134 136
182 185 180 169 162 163 160 153 157 158 150 148 145 142 144 141 138 128 125 124 119 119
165 162 153 156 157 151 155 156 151 138 134 139 143 145 136 132 130 124 113 102 102 99
150 154 158 148 150 148 146 145 143 146 144 144 145 158 150 136 128 120 116 107 95 93
154 156 150 142 143 151 150 144 145 140 140 138 133 154 148 135 120 117 116 116 111 97
146 135 131 135 139 131 141 144 141 134 126 127 141 147 138 121 105 97 91 98 104 110
139 128 127 128 125 122 119 114 117 128 130 134 131 135 130 110 102 98 92 94 95 103
110 119 108 113 115 87 106 112 116 111 115 122 119 129 127 112 112 107 104 74 67 109
80 95 102 94 106 114 114 113 106 102 99 107 116 127 129 120 112 119 111 96 66 74